CW2989 Weather Reports


Display with metric or nautical units.
time (UTC)temp
F
wind
direction
speed
MPH
gust
MPH
rain 1hr
in
rain 24hr
in
rain mn
in
humidity
%
barometer
mb
20210421124528 41 67 2.0 8.0 0.00 0.00 0.00 70 1010.6
20210421123708 40 98 3.0 8.0 0.00 0.00 0.00 71 1010.6
20210421122720 40 153 2.0 8.0 0.00 0.00 0.00 71 1010.6
20210421121614 40 134 2.0 8.0 0.00 0.00 0.00 72 1010.6
20210421120141 40 145 2.0 6.0 0.00 0.00 0.00 72 1010.5
20210421114117 40 84 2.0 5.0 0.00 0.00 0.00 73 1010.4
20210421113045 40 82 1.0 6.0 0.00 0.00 0.00 73 1010.4
20210421112054 40 77 2.0 6.0 0.00 0.00 0.00 74 1010.1
20210421110244 40 82 1.0 5.0 0.00 0.00 0.00 74 1009.6
20210421103939 40 107 1.0 5.0 0.00 0.00 0.00 74 1009.5
20210421102947 40 132 1.0 4.0 0.00 0.00 0.00 74 1009.5
20210421101948 40 71 1.0 4.0 0.00 0.00 0.00 73 1009.4
20210421101025 40 79 1.0 5.0 0.00 0.00 0.00 73 1009.4
20210421100314 41 76 1.0 5.0 0.00 0.00 0.00 72 1009.0
20210421093959 41 119 1.0 5.0 0.00 0.00 0.00 72 1008.9
20210421092933 41 125 1.0 3.0 0.00 0.00 0.00 72 1008.9
20210421091913 41 144 1.0 6.0 0.00 0.00 0.00 71 1008.8
20210421090900 42 126 1.0 6.0 0.00 0.00 0.00 70 1008.4
20210421085533 42 144 2.0 6.0 0.00 0.00 0.00 69 1008.3
20210421083800 42 153 2.0 6.0 0.00 0.00 0.00 69 1008.3
20210421082808 43 134 2.0 6.0 0.00 0.00 0.00 69 1008.3
20210421081814 43 134 2.0 9.0 0.00 0.00 0.00 68 1008.3
20210421075442 44 82 1.0 5.0 0.00 0.00 0.00 70 1008.3
20210421073826 44 154 1.0 4.0 0.00 0.00 0.00 70 1008.3
20210421072734 44 138 2.0 5.0 0.00 0.00 0.00 69 1008.0
20210421071709 45 114 3.0 9.0 0.00 0.00 0.00 68 1008.0
20210421070839 45 145 4.0 13.0 0.00 0.00 0.00 66 1007.7
20210421064650 46 142 3.0 13.0 0.00 0.00 0.00 66 1007.7
20210421063717 46 114 3.0 11.0 0.00 0.00 0.00 66 1007.7
20210421062926 46 100 3.0 11.0 0.00 0.00 0.00 65 1007.7
20210421061653 47 79 3.0 9.0 0.00 0.00 0.00 65 1007.7
20210421060639 47 123 4.0 12.0 0.00 0.00 0.00 64 1007.6
20210421060257 47 145 3.0 12.0 0.00 0.00 0.00 64 1007.5
20210421054558 47 157 4.0 9.0 0.00 0.00 0.00 64 1007.5
20210421053527 48 111 3.0 12.0 0.00 0.00 0.00 64 1007.2
20210421052934 48 113 3.0 12.0 0.00 0.00 0.00 64 1007.4
20210421051523 48 109 2.0 12.0 0.00 0.00 0.00 64 1007.4
20210421050445 49 101 3.0 11.0 0.00 0.00 0.00 64 1007.3
20210421045813 49 74 4.0 11.0 0.00 0.00 0.00 63 1007.4
20210421044444 49 65 4.0 10.0 0.00 0.00 0.00 63 1007.4
20210421043427 50 76 4.0 15.0 0.00 0.00 0.00 62 1007.3
20210421042834 50 52 4.0 15.0 0.00 0.00 0.00 62 1007.2
20210421041409 51 96 5.0 13.0 0.00 0.00 0.00 62 1007.2
20210421040334 51 111 5.0 13.0 0.00 0.00 0.00 62 1007.2
20210421035613 51 97 5.0 12.0 0.00 0.00 0.00 61 1007.1
20210421034256 52 84 4.0 12.0 0.00 0.00 0.00 61 1006.6
20210421033308 52 148 3.0 12.0 0.00 0.00 0.00 60 1006.6
20210421032524 53 96 4.0 13.0 0.00 0.00 0.00 59 1006.2
20210421031225 53 130 7.0 17.0 0.00 0.00 0.00 58 1005.9
20210421030222 54 104 4.0 11.0 0.00 0.00 0.00 59 1005.9
20210421025529 54 84 4.0 11.0 0.00 0.00 0.00 58 1005.5
20210421024143 55 96 4.0 10.0 0.00 0.00 0.00 58 1005.3
20210421023126 55 126 3.0 10.0 0.00 0.00 0.00 57 1005.3
20210421022333 56 71 4.0 10.0 0.00 0.00 0.00 56 1005.0
20210421021134 56 92 3.0 10.0 0.00 0.00 0.00 56 1004.6
20210421020157 57 115 5.0 14.0 0.00 0.00 0.00 55 1004.6
20210421015431 57 78 4.0 14.0 0.00 0.00 0.00 55 1004.4
20210421014106 57 67 3.0 13.0 0.00 0.00 0.00 55 1003.9
20210421013040 58 135 3.0 13.0 0.00 0.00 0.00 55 1003.9
20210421012107 58 89 3.0 11.0 0.00 0.00 0.00 54 1003.7
20210421011040 59 65 4.0 14.0 0.00 0.00 0.00 53 1003.3
20210421010052 59 108 5.0 14.0 0.00 0.00 0.00 53 1003.3
20210421005426 60 86 4.0 12.0 0.00 0.00 0.00 52 1003.1
20210421004045 60 96 5.0 13.0 0.00 0.00 0.00 52 1002.8
20210421003051 61 49 5.0 14.0 0.00 0.00 0.00 52 1002.8
20210421002320 61 32 5.0 15.0 0.00 0.00 0.00 52 1002.5
20210421001042 62 115 6.0 15.0 0.00 0.00 0.00 51 1002.2
20210421000110 62 109 6.0 14.0 0.00 0.00 0.00 50 1002.2
20210420235434 63 92 5.0 14.0 0.00 0.00 0.00 50 1002.0
20210420234125 63 144 5.0 14.0 0.00 0.00 0.00 50 1001.7
20210420233051 64 94 6.0 13.0 0.00 0.00 0.00 50 1001.7
20210420232448 64 152 6.0 14.0 0.00 0.00 0.00 49 1001.7
20210420231033 64 69 6.0 17.0 0.00 0.00 0.00 49 1001.3
20210420230040 65 54 6.0 17.0 0.00 0.00 0.00 49 1001.3
20210420225236 65 90 7.0 16.0 0.00 0.00 0.00 49 1001.2
20210420224012 65 92 7.0 17.0 0.00 0.00 0.00 48 1001.2
20210420223020 65 84 6.0 17.0 0.00 0.00 0.00 48 1001.2
20210420221959 66 92 6.0 14.0 0.00 0.00 0.00 49 1001.1
20210420220950 66 46 7.0 15.0 0.00 0.00 0.00 50 1001.1
20210420215951 66 109 6.0 17.0 0.00 0.00 0.00 49 1001.1
20210420215101 66 81 7.0 17.0 0.00 0.00 0.00 48 1000.8
20210420213915 66 73 7.0 15.0 0.00 0.00 0.00 50 1000.6
20210420212910 67 88 7.0 15.0 0.00 0.00 0.00 48 1000.6
20210420212106 67 164 6.0 17.0 0.00 0.00 0.00 48 1000.6
20210420210905 68 125 7.0 17.0 0.00 0.00 0.00 49 1000.7
20210420205923 68 71 8.0 16.0 0.00 0.00 0.00 49 1000.7
20210420204913 69 103 7.0 14.0 0.00 0.00 0.00 48 1000.8
20210420203823 70 83 6.0 13.0 0.00 0.00 0.00 48 1000.6
20210420202811 70 152 7.0 13.0 0.00 0.00 0.00 49 1000.6
20210420201743 70 101 7.0 21.0 0.00 0.00 0.00 49 1000.6
20210420200800 70 165 7.0 21.0 0.00 0.00 0.00 49 1000.6
20210420195800 71 50 6.0 17.0 0.00 0.00 0.00 48 1000.6
20210420194827 71 105 7.0 17.0 0.00 0.00 0.00 49 1000.6
20210420193821 72 105 7.0 16.0 0.00 0.00 0.00 49 1000.4
20210420192823 74 61 6.0 16.0 0.00 0.00 0.00 47 1000.0
20210420191910 77 73 4.0 15.0 0.00 0.00 0.00 42 1000.0
20210420190848 78 84 3.0 12.0 0.00 0.00 0.00 38 1000.1
20210420185813 79 98 1.0 8.0 0.00 0.00 0.00 41 1000.1
20210420184743 79 266 0.0 6.0 0.00 0.00 0.00 36 1000.1
20210420183717 78 62 1.0 6.0 0.00 0.00 0.00 40 1000.1
20210420182752 77 65 2.0 6.0 0.00 0.00 0.00 38 1000.1
20210420181624 77 36 1.0 4.0 0.00 0.00 0.00 36 1000.1
20210420180619 77 89 1.0 4.0 0.00 0.00 0.00 40 1000.3
20210420175735 78 88 1.0 4.0 0.00 0.00 0.00 38 1000.6
20210420174604 78 21 0.0 3.0 0.00 0.00 0.00 38 1000.6
20210420173554 77 146 1.0 4.0 0.00 0.00 0.00 40 1000.7
20210420172717 76 82 1.0 4.0 0.00 0.00 0.00 40 1000.7
20210420171544 77 74 0.0 4.0 0.00 0.00 0.00 42 1000.7
20210420170550 76 319 0.0 4.0 0.00 0.00 0.00 42 1000.8
20210420170010 76 10 0.0 4.0 0.00 0.00 0.00 43 1001.1
20210420164551 76 274 0.0 4.0 0.00 0.00 0.00 45 1001.1
20210420163603 75 342 0.0 2.0 0.00 0.00 0.00 46 1001.2
20210420162707 74 345 0.0 2.0 0.00 0.00 0.00 43 1001.2
20210420161545 73 264 0.0 2.0 0.00 0.00 0.00 44 1001.2
20210420160529 73 286 0.0 3.0 0.00 0.00 0.00 46 1001.3
20210420155700 72 284 0.0 3.0 0.00 0.00 0.00 47 1001.3
20210420154531 72 286 0.0 3.0 0.00 0.00 0.00 46 1001.3
20210420153509 71 54 0.0 2.0 0.00 0.00 0.00 47 1001.2
20210420152721 71 355 0.0 2.0 0.00 0.00 0.00 47 1000.9
20210420151500 70 17 0.0 2.0 0.00 0.00 0.00 48 1000.9
20210420150453 69 319 1.0 3.0 0.00 0.00 0.00 51 1000.8
20210420145628 68 270 0.0 3.0 0.00 0.00 0.00 53 1000.7
20210420144449 67 321 0.0 3.0 0.00 0.00 0.00 55 1000.7
20210420143436 65 338 0.0 4.0 0.00 0.00 0.00 57 1000.8
20210420142721 64 284 1.0 4.0 0.00 0.00 0.00 57 1000.6
20210420141457 63 290 0.0 2.0 0.00 0.00 0.00 61 1000.6
20210420140437 61 253 0.0 3.0 0.00 0.00 0.00 65 1000.7
20210420135800 59 246 0.0 3.0 0.00 0.00 0.00 67 1000.3
20210420134340 58 246 0.0 3.0 0.00 0.00 0.00 67 1000.4
20210420133358 57 245 0.0 2.0 0.00 0.00 0.00 70 1000.4
20210420132733 56 245 1.0 2.0 0.00 0.00 0.00 71 1000.3
20210420131307 54 244 0.0 2.0 0.00 0.00 0.00 73 1000.4